This demonstration page uses our WeatherBlox Daily Observations layout. Learn more.

Left ArrowRight Arrow

34.02893, -84.19858

Hourly Observations for July 12, 2018

Temp ( °F °C ) Dew Point ( °F °C ) Humidity (%) Winds ( mph kmh ) Pressure ( in mb ) Visibility ( mi km ) Precip ( " mm )
12:53 am 00:53 Clear 76 24.4 72 22.2 88 88 Calm 29.99 1016 10 16 0.00 0.00
1:53 am 01:53 Clear 75 23.9 72 22.2 90 90 Calm 29.98 1015 9 14 0.00 0.00
2:53 am 02:53 Clear 75 23.9 72 22.2 90 90 Calm 29.98 1015 10 16 0.00 0.00
3:53 am 03:53 Clear 74 23.3 72 22.2 94 94 Calm 29.97 1015 9 14 0.00 0.00
4:53 am 04:53 Clear 73 22.8 72 22.2 96 96 Calm 29.98 1015 7 11 0.00 0.00
5:53 am 05:53 Clear with Mist and Fog 73 22.8 71 21.7 94 94 Calm 29.98 1015 6 10 0.00 0.00
6:53 am 06:53 Sunny 75 23.9 71 21.7 88 88 Calm 30.00 1016 7 11 0.00 0.00
7:53 am 07:53 Sunny 78 25.6 72 22.2 82 82 Calm 30.00 1016 7 11 0.00 0.00
8:53 am 08:53 Sunny 81 27.2 72 22.2 74 74 Calm 30.03 1017 8 13 0.00 0.00
9:53 am 09:53 Sunny 85 29.4 72 22.2 65 65 Calm 30.04 1017 9 14 0.00 0.00
10:53 am 10:53 Sunny 86 30 71 21.7 61 61 VRB 3 6 30.05 1018 10 16 0.00 0.00
11:53 am 11:53 Sunny 88 31.1 71 21.7 57 57 WSW 3 6 30.05 1018 10 16 0.00 0.00
12:53 pm 12:53 Sunny 90 32.2 73 22.8 58 58 undefined N/A 30.05 1018 10 16 0.00 0.00
1:53 pm 13:53 Partly Cloudy with Light Rain 90 32.2 72 22.2 56 56 N 8 13 30.04 1017 9 14 0.00 0.03
2:53 pm 14:53 Mostly Cloudy 91 32.8 70 21.1 50 50 NW 5 7 30.02 1017 10 16 0.00 0.03
3:53 pm 15:53 Sunny 92 33.3 68 20 46 46 NNW 9 15 30.00 1016 10 16 0.00 0.00
4:53 pm 16:53 Mostly Sunny 93 33.9 70 21.1 47 47 NNW 9 15 29.99 1016 10 16 0.00 0.00
5:53 pm 17:53 Mostly Sunny 91 32.8 68 20 47 47 NNW 9 15 30.00 1016 10 16 0.00 0.00
6:27 pm 18:27 Sunny with Nearby Thunderstorms 90 32.2 67 19.4 47 47 N 5 7 30.00 1016 10 16 0.00 0.00
6:42 pm 18:42 Sunny 91 32.8 68 20 47 47 NNW 7 11 29.97 1015 10 16 0.00 0.00
6:53 pm 18:53 Sunny 92 33.3 68 20 46 46 WNW 3 6 29.98 1015 10 16 0.00 0.00
7:53 pm 19:53 Partly Cloudy 89 31.7 68 20 50 50 W 6 9 29.99 1016 10 16 0.00 0.00
8:53 pm 20:53 Clear 82 27.8 72 22.2 72 72 SE 8 13 30.01 1016 10 16 0.00 0.00
9:53 pm 21:53 Clear 80 26.7 73 22.8 79 79 SSE 3 6 30.03 1017 10 16 0.00 0.00
10:53 pm 22:53 Clear 78 25.6 73 22.8 85 85 Calm 30.04 1017 10 16 0.00 0.00
11:53 pm 23:53 Clear 79 26.1 72 22.2 79 79 SW 5 7 30.04 1017 10 16 0.00 0.00

Powered by AerisWeather